Location: El Escorial
(40.5940°N, 4.1449°W)
Time: 23:29:09
(UTC+00:00)

Daily predictions for brighter satellites

Satellite Brightness Start Highest point End
(mag) Time Altitude Azimuth Time Altitude Azimuth Time Altitude Azimuth
Meteor 1-21 4.3 18:11:44 10° N 18:17:32 76° E 18:23:16 10° SSE
Cosmos 2341 Rocket 4.2 18:15:28 10° N 18:21:49 86° W 18:28:10 10° S
NOSS 3-1 (A) 3.3 18:20:33 10° S 18:25:09 44° ESE 18:30:26 10° NE
GEOS 3 Rocket 4.1 18:22:20 10° NNE 18:27:40 67° NW 18:32:52 10° SW
Cosmos 1975 3.3 18:25:10 10° SSW 18:28:59 64° W 18:32:52 10° N
IGS 5A 4.3 18:28:17 10° SE 18:31:48 28° ENE 18:35:20 10° N
Cosmos 2218 Rocket 4.0 18:26:05 10° N 18:32:17 85° E 18:38:28 10° S
ADEOS 3.5 18:29:05 10° SSE 18:34:16 75° ENE 18:39:29 10° N
H-2A R/B (2) 3.5 18:33:41 10° S 18:35:01 12° SSE 18:36:49 10° SE
Cosmos 2292 4.2 18:33:53 10° S 18:36:52 84° W 18:40:08 10° N
Cosmos 1269 Rocket 4.1 18:31:43 10° S 18:36:53 58° ESE 18:42:05 10° NNE
Cosmos 1726 4.2 18:35:31 10° SW 18:38:30 29° WNW 18:41:30 10° NNW
Cosmos 1980 3.9 18:33:12 10° S 18:38:34 48° ESE 18:43:58 10° NE
Cosmos 1703 Rocket 3.5 18:35:26 10° N 18:39:54 74° E 18:44:22 10° SSE
SKYMED 2 4.0 18:36:05 10° N 18:40:25 68° WNW 18:44:43 10° SSW
Cosmos 1933 Rocket 3.7 18:39:56 10° S 18:44:18 80° W 18:48:41 10° N
Cosmos 1766 3.4 18:41:27 10° SSE 18:45:05 47° E 18:48:43 10° NNE
Cosmos 1867 3.7 18:40:29 10° SSW 18:45:44 55° ESE 18:51:04 10° NE
Cosmos 614 Rocket 3.9 18:40:55 10° SSW 18:45:58 84° ESE 18:51:03 10° NNE
CZ-4B R/B 4.1 18:41:58 10° ESE 18:46:19 27° ENE 18:50:43 10° N
APEX 3.4 18:43:24 10° NNW 18:46:44 56° WSW 18:49:39 10° S
Cosmos 2242 Rocket 4.0 18:43:52 10° N 18:48:10 41° ENE 18:52:28 10° SSE
Okean 2 3.2 18:48:50 10° N 18:52:51 71° E 18:56:51 10° SSE
Cosmos 2278 Rocket 2.3 18:47:35 10° NNW 18:53:10 55° ENE 18:58:42 10° SE
SL-08 R/B 4.0 18:48:39 10° N 18:53:32 61° WNW 18:58:20 10° SSW
Cosmos 1992 Rocket 4.0 18:50:16 10° NNW 18:55:28 64° ENE 19:00:39 10° SSE
PAYLOAD B 4.5 18:50:27 10° SE 18:55:44 47° ENE 19:01:01 10° N
ISS -3.4 18:52:58 10° WNW 18:56:17 63° SW 18:59:01 14° SE
SL-14 R/B 3.9 18:53:24 10° NNW 18:57:14 58° W 19:01:00 10° S
CZ-4C R/B 4.2 18:57:19 10° NE 19:01:45 16° SE 19:02:54 10° SSE
USA 276 1.6 18:58:48 10° SW 19:01:22 58° SE 19:02:13 34° E
NOSS 3-1 (C) 4.2 18:57:09 10° WSW 19:01:53 45° NW 19:07:30 10° NNE
SL-08 R/B 4.4 18:59:36 10° N 19:05:43 68° E 19:11:47 10° SSE
Cosmos 2251 Rocket 4.3 19:04:10 10° SSE 19:08:34 27° E 19:12:58 10° NE
YAOGAN 1 2.5 19:04:56 10° SSE 19:09:14 90° NNW 19:13:33 10° NNW
CZ-4 R/B 1.6 19:12:15 24° SE 19:14:10 43° ENE 19:17:47 10° N
Cosmos 2237 Rocket 2.2 19:10:53 10° SSW 19:16:35 87° WNW 19:22:19 10° NNE
SL-4 R/B 2.3 19:13:08 10° SSW 19:17:23 51° SE 19:19:00 32° E
Cosmos 2239 Rocket 4.4 19:12:57 10° N 19:19:11 78° E 19:25:25 10° S
Lacrosse 5 3.7 19:17:09 10° NNW 19:20:33 17° NNE 19:22:30 14° NE
Cosmos 2369 Rocket 4.1 19:18:35 10° NNE 19:20:54 12° NE 19:21:10 12° NE
Cosmos 1821 Rocket 4.4 19:18:19 10° NNW 19:24:35 69° W 19:30:54 10° S
COSMOS 2455 3.4 19:19:25 10° NW 19:25:19 58° WSW 19:31:10 10° S
Cosmos 1869 Rocket 4.4 19:21:09 10° SSW 19:25:25 51° W 19:29:40 10° N
SL-16 R/B 2.7 19:21:15 10° SSE 19:26:15 34° ESE 19:31:18 10° NE
Cosmos 1470 2.5 19:23:16 10° S 19:27:05 69° E 19:30:56 10° NNE
Meteor 1-22 Rocket 4.2 19:25:57 10° SSE 19:30:57 46° E 19:36:02 10° NNE
SJ-6B 2.8 19:30:49 43° SE 19:31:49 57° ENE 19:35:44 10° N
Cosmos 1943 Rocket 2.3 19:27:56 10° NNW 19:33:30 54° ENE 19:35:35 35° ESE
Landsat 7 3.6 19:31:13 17° SSE 19:34:53 77° ENE 19:39:36 10° N
ATLAS 3B R/B 4.2 19:30:14 10° WSW 19:36:36 37° NW 19:43:24 10° NNE
Cosmos 2221 Rocket 4.4 19:35:37 10° N 19:38:56 34° NE 19:38:56 34° NE
Okean O Rocket 1.7 19:39:33 50° E 19:39:56 52° ENE 19:44:16 10° N
ADEOS Rocket 3.9 19:38:44 31° ESE 19:41:27 42° ENE 19:48:08 10° N
Tiangong -1.6 19:40:58 10° W 19:43:35 56° WNW 19:43:35 56° WNW
Meteor 1-12 Rocket 4.2 19:40:52 10° S 19:46:38 71° E 19:52:32 10° NNE
CSL-04 Debris 4.2 19:48:22 47° ESE 19:49:30 57° ENE 19:54:49 10° N
Resurs 1-3 3.4 19:54:31 67° SSE 19:55:06 88° ENE 19:59:28 10° NNW
Cosmos 407 Rocket 3.3 19:51:45 10° S 19:56:55 68° ESE 20:02:11 10° NNE
PSLV R/B 4.3 19:57:32 45° SSW 19:58:25 58° W 20:02:17 10° NNW
USA 229 DEB 3.5 19:53:01 10° SW 19:59:07 80° NW 20:05:47 10° NNE
USA 229 3.5 19:53:06 10° SW 19:59:12 81° NW 20:05:53 10° NNE
Meteor 1-24 Rocket 3.4 19:59:34 10° N 20:04:56 71° E 20:04:58 71° E
Cosmos 1733 Rocket 3.7 20:01:38 10° SSW 20:05:54 53° W 20:10:11 10° N
CSL-04 Rocket 3.4 20:05:53 71° E 20:06:03 72° ENE 20:11:21 10° N
Milstar 3 Cent rocket 4.3 19:53:04 10° W 20:06:26 36° SSW 20:10:21 25° SSE
Resurs 01 Rocket 3.2 20:09:57 26° NNE 20:09:57 26° NNE 20:12:03 10° N
Meteor 2-5 Rocket 3.5 20:03:59 10° N 20:09:40 83° E 20:10:22 69° SSE
SPOT 1/Viking Rocket 3.4 20:10:54 78° NE 20:10:54 78° NE 20:15:55 10° N
USA 215 4.0 20:14:22 34° S 20:14:22 34° S 20:18:23 10° SSW
Okean-O 4.4 20:24:15 23° N 20:24:15 23° N 20:25:59 10° N
CZ-4B R/B 4.4 20:22:54 16° SSW 20:26:41 38° W 20:31:38 10° NNW
Cosmos 1140 Rocket 4.5 20:24:57 10° SW 20:29:51 45° WNW 20:34:50 10° N
Cosmos 2278 Rocket 4.5 20:32:44 10° NW 20:36:45 20° W 20:40:46 10° SW
USA 267 4.4 20:45:35 31° NNE 20:45:46 31° NNE 20:51:19 10° NW
Cosmos 1605 Rocket 4.4 20:40:34 10° NNW 20:46:31 57° W 20:47:13 54° WSW
CZ-4 R/B 4.3 20:48:01 11° WSW 20:49:08 12° W 20:50:46 10° WNW
Lacrosse 5 3.8 20:59:29 10° NW 21:01:41 25° NNW 21:01:41 25° NNW
Cosmos 2369 Rocket 3.7 21:00:18 10° NNW 21:02:58 29° NNW 21:02:58 29° NNW
SL-16 R/B 3.6 21:05:10 10° WSW 21:10:17 35° WNW 21:15:28 10° N
Okean O Rocket 4.5 21:16:57 14° W 21:16:57 14° W 21:18:52 10° WNW
Cosmos 1943 Rocket 4.2 21:12:42 10° NW 21:16:45 21° W 21:17:08 20° WSW
CZ-4C R/B 4.3 21:19:20 10° NNW 21:23:20 26° NNE 21:23:20 26° NNE
ADEOS Rocket 4.4 21:25:40 39° WSW 21:26:48 42° W 21:33:39 10° NNW
CENTAUR R/B 3.7 21:24:12 10° NNW 21:30:30 51° N 21:30:30 51° N
